TimeFrame on Redefined Productions
Outwar Torax TimeFrame

Torax TimeFrame

95 Gods Updated: 2019-05-18 06:53:31
NameTime LeftWindow Opens
Old World Drake35d 23:472019-04-15 09:11:00
Windstrike The Vile2d 22:472019-05-18 10:11:00
Ormsul the Putrid1d 14:392019-05-19 18:19:00
Skybrine The Inescapable1d 04:432019-05-20 04:15:00
Great Lord Ganeshan1d 04:202019-05-20 04:38:00
Amalgamated Apparition1d 00:102019-05-20 08:48:00
Detox0d 20:122019-05-20 12:46:00
Quiver, The Renegade0d 18:432019-05-20 14:15:00
Akkel the Enflamed Warrior0d 17:502019-05-20 15:08:00
Gorganus of the Wood0d 15:072019-05-20 17:51:00
Lacuste of the Swarm0d 12:242019-05-20 20:34:00
Jorun the Blazing Swordsman0d 09:422019-05-20 23:16:00
Melt Bane, The Forbidden Demon Dragon0d 08:072019-05-21 00:51:00
Ganja the Stone Golem0d 06:012019-05-21 02:57:00
Lady Ariella0d 00:552019-05-21 09:54:00
Freezebreed, The Frozen Manipulator0d 00:572019-05-21 09:56:00
Straya, the Underworld Ruler0d 01:432019-05-21 10:42:00
Dreg nor, Keeper of the Infernal Essence0d 02:042019-05-21 11:03:00
Brutalitar, Lord of the Underworld0d 02:462019-05-21 11:45:00
King Ashnar, Lord of the Unliving0d 04:142019-05-21 13:13:00
Noxious Slug0d 04:442019-05-21 13:43:00
Lord Varan0d 05:392019-05-21 14:38:00
Hackerphage, Protector of the Gateway0d 05:402019-05-21 14:39:00
Rancid, Lord of Thugs0d 06:192019-05-21 15:18:00
Ebliss, Fallen Angel of Despair0d 06:232019-05-21 15:22:00
Garland, The Lord Keeper0d 08:032019-05-21 17:02:00
Sylvanna TorLai0d 08:092019-05-21 17:08:00
Lord Narada0d 10:452019-05-21 19:44:00
Varsanor, Master of Darkness0d 11:262019-05-21 20:25:00
Baron Mu, Dark Rider of the Undead0d 11:492019-05-21 20:48:00
Volgan the Living Ironbark0d 13:342019-05-21 22:33:00
Zertan, The Collector0d 15:032019-05-22 00:02:00
Tylos, The Lord Master0d 15:062019-05-22 00:05:00
Vitkros, Hydra of the Deep0d 16:192019-05-22 01:18:00
Gnorb0d 16:312019-05-22 01:30:00
Pinosis0d 16:322019-05-22 01:31:00
Synge, The Red Dragon0d 16:552019-05-22 01:54:00
Wanhiroeaz the Devourer0d 17:242019-05-22 02:23:00
Slashbrood, Devourer of the Blackness0d 17:302019-05-22 02:29:00
Esquin, the Kinetic Master0d 17:332019-05-22 02:32:00
Lord Xordam0d 17:432019-05-22 02:42:00
Beast of Cards0d 18:052019-05-22 03:04:00
Howldroid, Tormentor of the Pit0d 18:192019-05-22 03:18:00
Lady Chaos, Queen of the Abyss0d 18:332019-05-22 03:32:00
Shadow0d 19:082019-05-22 04:07:00
Kretok, Descendant of Nature0d 20:142019-05-22 05:13:00
Rotborn, Eater of the Dead0d 20:302019-05-22 05:29:00
Felroc, Overseer of Hellfire0d 20:432019-05-22 05:42:00
Smoot the Yeti0d 23:312019-05-22 08:30:00
Murderface0d 23:402019-05-22 08:39:00
Terrance, Rebel of Rallis1d 00:202019-05-22 09:19:00
Emperor Neudeus, Controller of the Universe1d 03:332019-05-22 12:32:00
Numerocure, The Black Messenger of Evil1d 03:522019-05-22 12:51:00
Sarcrina the Astral Priestess1d 04:192019-05-22 13:18:00
Crane1d 04:272019-05-22 13:26:00
Tsort1d 07:382019-05-22 16:37:00
Nessam1d 07:402019-05-22 16:39:00
Zikkir the Dark Archer1d 07:432019-05-22 16:42:00
Ancient Magus Tarkin1d 08:382019-05-22 17:37:00
Nayark the Mummified Sorcerer1d 08:522019-05-22 17:51:00
Bloodchill the Grizzly1d 09:132019-05-22 18:12:00
Hyrak, Bringer of Nightmares1d 11:022019-05-22 20:01:00
Mistress of the Sword1d 11:082019-05-22 20:07:00
Samatha Dark-Soul1d 18:162019-05-23 03:15:00
The Emerald Assassin1d 19:272019-05-23 04:26:00
Crantos, Defender of Ultimation1d 20:552019-05-23 05:54:00
Nar Zhul, Slayer of All1d 21:152019-05-23 06:14:00
Q-SEC Commander2d 00:422019-05-23 09:41:00
Anguish2d 01:362019-05-23 10:35:00
Threk, King of Lords2d 02:082019-05-23 11:07:00
Lord Sibannac2d 05:072019-05-23 14:06:00
Traxodon the Plaguebringer2d 05:142019-05-23 14:13:00
Crolvak, the Fire Master2d 07:242019-05-23 16:23:00
Lord Suka2d 08:292019-05-23 17:28:00
Viserion, the Necrodragon2d 10:352019-05-23 19:34:00
Karvaz, Lord of Alsayic2d 10:362019-05-23 19:35:00
Bolkor, the Holy Master2d 10:592019-05-23 19:58:00
Keeper of Nature2d 11:172019-05-23 20:16:00
Sigil, Lich of Woe2d 11:512019-05-23 20:50:00
Dlanod, the Crazed Chancellor2d 12:392019-05-23 21:38:00
Jazzmin, Maiden of Vitality2d 14:022019-05-23 23:01:00
Raiyar, the Shadow Master2d 17:102019-05-24 02:09:00
Archdevil Yirkon2d 17:192019-05-24 02:18:00
Grivvek, Protector of the Brood2d 17:252019-05-24 02:24:00
Balerion, Dragon of Dread2d 21:012019-05-24 06:00:00
Xynak, the Arcane Master3d 08:302019-05-24 17:29:00
Ag Nabak the Abomination3d 10:522019-05-24 19:51:00
Nafir, God of Desolation4d 00:512019-05-25 09:50:00
Skarthul the Avenged4d 03:402019-05-25 12:39:00
Anvilfist4d 10:252019-05-25 19:24:00
Kro Shuk, Doomslayer5d 20:202019-05-27 05:19:00
Jade Dragonite63d 14:252019-03-18 18:33:00
Animated Captain40d 12:202019-04-10 20:38:00
Shaik, Servant of Arkron31d 13:502019-04-19 19:08:00
Rook, Hand of Arkron31d 12:142019-04-19 20:44:00